Location: ????????
(55.3155°N, 39.2900°E)
Time: 06:40:23
(UTC+00:00)

ALOS - Pass Details

Date: 14 April 2024
Orbit: 674 x 675 km, 98.0° (Epoch: 22 May)

Event Time Altitude Azimuth Distance (km) Brightness Sun altitude
Rises 01:39:47 0° 9° (N) 3,049 6.2 -6.2°
Reaches altitude 10° 01:42:16 10° 358° (N) 2,130 5.2 -5.9°
Maximum altitude 01:46:12 28° 301° (WNW) 1,275 3.4 -5.4°
Drops below altitude 10° 01:50:06 10° 243° (WSW) 2,116 4.1 -4.9°
Enters shadow 01:51:11 - 237° (WSW) 2,498 4.5 -4.8°
